Time,TemperatureF,DewpointF,PressureIn,WindDirection,WindDirectionDegrees,WindSpeedMPH,WindSpeedGustMPH,Humidity,HourlyPrecipIn,Conditions,Clouds,dailyrainin,SolarRadiationWatts/m^2,SoftwareType,DateUTC
2013-08-02 07:40:00,70.0,22.0,30.03,SSE,158,2.0,4.0,16,-99.99,,,-99.99,289.000000,,2013-08-02 14:40:00,
2013-08-02 08:32:00,70.0,22.0,30.03,SSE,158,2.0,4.0,16,-99.99,,,-99.99,289.000000,,2013-08-02 15:32:00,
2013-08-02 08:40:00,72.0,27.0,30.04,South,180,3.0,5.0,18,-99.99,,,-99.99,522.000000,,2013-08-02 15:40:00,
2013-08-02 09:32:00,72.0,27.0,30.04,South,180,3.0,5.0,18,-99.99,,,-99.99,522.000000,,2013-08-02 16:32:00,
2013-08-02 09:40:00,73.0,28.0,30.05,West,268,2.0,4.0,19,-99.99,,,-99.99,725.000000,,2013-08-02 16:40:00,
2013-08-02 10:40:00,73.0,38.0,30.05,West,265,4.0,6.0,28,-99.99,,,-99.99,905.000000,,2013-08-02 17:40:00,
2013-08-02 11:32:00,73.0,38.0,30.05,West,265,4.0,6.0,28,-99.99,,,-99.99,905.000000,,2013-08-02 18:32:00,
2013-08-02 12:22:00,74.0,30.0,30.05,West,280,3.0,6.0,20,-99.99,,,-99.99,1012.000000,,2013-08-02 19:22:00,
2013-08-02 12:32:00,74.0,30.0,30.05,West,280,3.0,6.0,20,-99.99,,,-99.99,1012.000000,,2013-08-02 19:32:00,
2013-08-02 13:40:00,77.0,38.0,30.04,West,272,4.0,6.0,25,-99.99,,,-99.99,1056.000000,,2013-08-02 20:40:00,
2013-08-02 14:22:00,77.0,38.0,30.04,West,272,4.0,6.0,25,-99.99,,,-99.99,1056.000000,,2013-08-02 21:22:00,
2013-08-02 14:32:00,77.0,38.0,30.04,West,272,4.0,6.0,25,-99.99,,,-99.99,1056.000000,,2013-08-02 21:32:00,
2013-08-02 14:40:00,77.0,32.0,30.04,West,263,3.0,6.0,19,-99.99,,,-99.99,995.000000,,2013-08-02 21:40:00,
2013-08-02 15:22:00,77.0,32.0,30.04,West,263,3.0,6.0,19,-99.99,,,-99.99,995.000000,,2013-08-02 22:22:00,
2013-08-02 15:32:00,77.0,32.0,30.04,West,263,3.0,6.0,19,-99.99,,,-99.99,995.000000,,2013-08-02 22:32:00,
2013-08-02 15:40:00,79.0,41.0,30.03,WSW,257,3.0,6.0,26,-99.99,,,-99.99,873.000000,,2013-08-02 22:40:00,
2013-08-02 16:32:00,79.0,41.0,30.03,WSW,257,3.0,6.0,26,-99.99,,,-99.99,873.000000,,2013-08-02 23:32:00,
2013-08-02 16:40:00,77.0,37.0,30.02,West,263,4.0,6.0,24,-99.99,,,-99.99,708.000000,,2013-08-02 23:40:00,
2013-08-02 17:32:00,77.0,37.0,30.02,West,263,4.0,6.0,24,-99.99,,,-99.99,708.000000,,2013-08-03 00:32:00,
2013-08-02 17:40:00,78.0,29.0,30.02,West,273,3.0,6.0,17,-99.99,,,-99.99,504.000000,,2013-08-03 00:40:00,
2013-08-02 18:40:00,76.0,32.0,30.01,West,279,5.0,8.0,20,-99.99,,,-99.99,279.000000,,2013-08-03 01:40:00,
2013-08-02 20:22:00,73.0,29.0,30.01,WNW,286,4.0,6.0,19,-99.99,,,-99.99,89.000000,,2013-08-03 03:22:00,